Regional Weather Roundup
Issued by NWS

Home | Current Version | Previous Version | Graphics & Text | Print | Product List | Glossary On
Versions: 1 2 3 4 5 6 7 8 9 10 11 12 13 14 15 16 17 18 19 20 21 22 23 24 25 26 27 28 29 30 31 32 33 34 35 36 37 38 39 40 41 42 43 44 45 46 47 48 49 50
661
ASUS43 KIND 190159
RWRIN

WEATHER ROUNDUP FOR INDIANA
NATIONAL WEATHER SERVICE INDIANAPOLIS IN
900 PM EST SAT FEB 18 2017

NOTE: "FAIR" INDICATES FEW OR NO CLOUDS BELOW 12,000 FEET WITH NO
SIGNIFICANT WEATHER AND/OR OBSTRUCTIONS TO VISIBILITY.

* - STATION DOES NOT REPORT WEATHER SUCH AS PRECIPITATION OR FOG.

+ - STATION NOT QUALITY CONTROLLED BY THE NATIONAL WEATHER SERVICE.
    USE DATA WITH CAUTION...ESPECIALLY DEWPOINT AND RELATIVE
    HUMIDITY OBSERVATIONS.

INZ001>003-010>013-019-020-190300-
NORTHWEST INDIANA

CITY           SKY/WX    TMP DP  RH WIND       PRES   REMARKS
GARY /AIRPORT/ CLEAR     41  32  70 CALM      29.80R
KNOX *+        CLEAR     45  21  39 CALM      29.78R
MICHIGAN CITY+ CLEAR     45  32  61 CALM      29.79R
MONTICELLO +   CLEAR     51  40  68 SW6       29.79R
RENSSELAER +   CLEAR     50  41  71 S6        29.80R

$$

LMZ046-743>745-190300-
SOUTHERN LAKE MICHIGAN

STATION/POSITION TIME  TEMP    WIND        PRES    WAVE
                       AIR SEA DIR/SP/G            HT
                 (UTC) (F)     (DEG/KT/KT) (MB)    (FT)
BURNS HARBOR     0140   42      70/  8/ 10 1009.1R
MICHIGAN CITY    0130   53      40/  6/  7   N/A

$$

INZ004-005-014>016-021>024-190300-
NORTH CENTRAL INDIANA

CITY           SKY/WX    TMP DP  RH WIND       PRES   REMARKS
GOSHEN         CLEAR     49  38  65 S5        29.78R
SOUTH BEND     CLEAR     40  33  76 N7        29.80R
WARSAW +       CLEAR     50  39  66 CALM      29.79R

$$

INZ006>009-017-018-025>027-190300-
NORTHEAST INDIANA

CITY           SKY/WX    TMP DP  RH WIND       PRES   REMARKS
ANGOLA *+      CLEAR     45  39  81 CALM      29.78R
FORT WAYNE     PTCLDY    49  40  71 SW9       29.80R
KENDALLVILLE + CLEAR     50  40  67 SW7       29.79R

$$

INZ028-029-035-036-043>045-051>053-190300-
WEST CENTRAL INDIANA

CITY           SKY/WX    TMP DP  RH WIND       PRES   REMARKS
LAFAYETTE      CLEAR     52  42  69 SW6       29.81R
TERRE HAUTE    CLOUDY    53  47  79 SW8       29.86R

$$

INZ030>032-037>040-046>048-054>057-064-065-190300-
CENTRAL INDIANA

CITY           SKY/WX    TMP DP  RH WIND       PRES   REMARKS
CP ATTERBURY + CLEAR     52  43  71 SW8       29.87R
COLUMBUS       PTCLDY    50  46  87 SW9       29.87R
FRANKFORT +    CLEAR     49  43  78 SW8       29.84R
GREENWOOD *+   PTCLDY    53  45  74 SW6       29.85R
INDIANAPOLIS   PTCLDY    51  45  79 SW13      29.85R
-EAGLE CREEK   CLEAR     53  44  71 SW8       29.83R
KOKOMO +       CLEAR     50  42  74 MISG      29.82R
MT COMFORT *+  PTCLDY    52  43  71 SW9       29.84R
SHELBYVILLE    PTCLDY    48  40  73 SW7       29.85R

$$

INZ033-034-041-042-049-050-058-059-190300-
EAST CENTRAL INDIANA

CITY           SKY/WX    TMP DP  RH WIND       PRES   REMARKS
MUNCIE         CLEAR     53  41  63 SW6       29.82R

$$

INZ060-061-067>069-081>083-085>088-190300-
SOUTHWEST INDIANA

CITY           SKY/WX    TMP DP  RH WIND       PRES   REMARKS
EVANSVILLE     CLOUDY    52  49  89 SW7       29.91F FOG
HUNTINGBURG *+ CLOUDY    50  48  93 S7        29.91S

$$

INZ062-063-066-070>080-084-089>092-190300-
SOUTH CENTRAL AND SOUTHEAST INDIANA

CITY           SKY/WX    TMP DP  RH WIND       PRES   REMARKS
BLOOMINGTON    PTCLDY    51  45  79 SW12      29.87R
MADISON *+     CLOUDY    50  46  87 SW7       29.91R
SEYMOUR +      CLOUDY    54  46  76 SW8       29.88R

$$





USA.gov is the U.S. government's official web portal to all federal, state and local government web resources and services.